| time (UTC) | temp C | wind direction | speed KPH | gust KPH | rain 1hr cm | rain 24hr cm | rain mn cm | humidity % | barometer mb |
| 20260507231517 | 13 | 270 | 1.6 | 6.4 | 0.00 | 0.00 | 0.00 | 51 | 1011.3 |
| 20260507230518 | 13 | 244 | 4.8 | 11.3 | 0.00 | 0.00 | 0.00 | 50 | 1011.3 |
| 20260507225518 | 13 | 239 | 3.2 | 11.3 | 0.00 | 0.00 | 0.00 | 50 | 1011.3 |
| 20260507224515 | 13 | 242 | 3.2 | 12.9 | 0.00 | 0.00 | 0.00 | 49 | 1011.2 |
| 20260507223515 | 14 | 232 | 6.4 | 12.9 | 0.00 | 0.00 | 0.00 | 49 | 1011.1 |
| 20260507222515 | 14 | 238 | 4.8 | 8.0 | 0.00 | 0.00 | 0.00 | 50 | 1010.9 |
| 20260507221516 | 13 | 242 | 4.8 | 9.7 | 0.00 | 0.00 | 0.00 | 50 | 1011.0 |
| 20260507220516 | 14 | 230 | 8.0 | 14.5 | 0.00 | 0.00 | 0.00 | 50 | 1010.9 |
| 20260507215516 | 15 | 233 | 8.0 | 14.5 | 0.00 | 0.00 | 0.00 | 49 | 1010.9 |
| 20260507214516 | 15 | 230 | 11.3 | 14.5 | 0.00 | 0.00 | 0.00 | 49 | 1010.4 |
| 20260507213516 | 15 | 246 | 8.0 | 14.5 | 0.00 | 0.00 | 0.00 | 49 | 1010.6 |
| 20260507212516 | 15 | 226 | 11.3 | 17.7 | 0.00 | 0.00 | 0.00 | 48 | 1010.3 |
| 20260507211516 | 14 | 235 | 8.0 | 16.1 | 0.00 | 0.00 | 0.00 | 50 | 1010.6 |
| 20260507210516 | 15 | 230 | 9.7 | 16.1 | 0.00 | 0.00 | 0.00 | 50 | 1010.4 |
| 20260507205517 | 14 | 241 | 9.7 | 16.1 | 0.00 | 0.00 | 0.00 | 50 | 1010.5 |
| 20260507204517 | 15 | 238 | 11.3 | 19.3 | 0.00 | 0.00 | 0.00 | 49 | 1010.4 |
| 20260507203517 | 16 | 205 | 4.8 | 9.7 | 0.00 | 0.00 | 0.00 | 50 | 1010.3 |
| 20260507202517 | 15 | 239 | 9.7 | 16.1 | 0.00 | 0.00 | 0.00 | 49 | 1010.6 |
| 20260507201518 | 16 | 222 | 12.9 | 17.7 | 0.00 | 0.00 | 0.00 | 49 | 1010.3 |
| 20260507200518 | 15 | 243 | 6.4 | 11.3 | 0.00 | 0.00 | 0.00 | 50 | 1010.4 |
| 20260507195517 | 15 | 234 | 4.8 | 12.9 | 0.00 | 0.00 | 0.00 | 52 | 1010.6 |
| 20260507194515 | 14 | 229 | 9.7 | 17.7 | 0.00 | 0.00 | 0.00 | 51 | 1011.2 |
| 20260507193535 | 15 | 231 | 9.7 | 16.1 | 0.00 | 0.00 | 0.00 | 51 | 1010.8 |
| 20260507192515 | 15 | 143 | 4.8 | 9.7 | 0.00 | 0.00 | 0.00 | 50 | 1011.2 |
| 20260507191515 | 15 | 232 | 8.0 | 14.5 | 0.00 | 0.00 | 0.00 | 51 | 1010.7 |
| 20260507190516 | 15 | 232 | 11.3 | 19.3 | 0.00 | 0.00 | 0.00 | 52 | 1011.0 |
| 20260507185536 | 15 | 229 | 11.3 | 19.3 | 0.00 | 0.00 | 0.00 | 51 | 1010.7 |
| 20260507184516 | 15 | 231 | 6.4 | 11.3 | 0.00 | 0.00 | 0.00 | 51 | 1010.9 |
| 20260507183516 | 15 | 210 | 3.2 | 9.7 | 0.00 | 0.00 | 0.00 | 52 | 1011.4 |
| 20260507182517 | 15 | 220 | 8.0 | 16.1 | 0.00 | 0.00 | 0.00 | 51 | 1011.0 |
| 20260507181517 | 15 | 226 | 8.0 | 17.7 | 0.00 | 0.00 | 0.00 | 53 | 1010.9 |
| 20260507180517 | 14 | 232 | 8.0 | 12.9 | 0.00 | 0.00 | 0.00 | 51 | 1010.8 |
| 20260507175516 | 13 | 221 | 3.2 | 8.0 | 0.00 | 0.00 | 0.00 | 54 | 1011.6 |
| 20260507174516 | 14 | 229 | 9.7 | 19.3 | 0.00 | 0.00 | 0.00 | 53 | 1011.4 |
| 20260507173515 | 14 | 224 | 6.4 | 14.5 | 0.00 | 0.00 | 0.00 | 53 | 1011.3 |
| 20260507172516 | 14 | 264 | 8.0 | 16.1 | 0.00 | 0.00 | 0.00 | 53 | 1011.5 |
| 20260507171516 | 13 | 221 | 8.0 | 14.5 | 0.00 | 0.00 | 0.00 | 53 | 1011.5 |
| 20260507170516 | 13 | 228 | 8.0 | 12.9 | 0.00 | 0.00 | 0.00 | 54 | 1011.9 |
| 20260507165516 | 13 | 221 | 3.2 | 8.0 | 0.00 | 0.00 | 0.00 | 53 | 1012.0 |
| 20260507164515 | 13 | 230 | 4.8 | 9.7 | 0.00 | 0.00 | 0.00 | 53 | 1011.9 |
| 20260507163515 | 13 | 224 | 6.4 | 17.7 | 0.00 | 0.00 | 0.00 | 54 | 1012.1 |
| 20260507162515 | 13 | 214 | 9.7 | 16.1 | 0.00 | 0.00 | 0.00 | 55 | 1012.1 |
| 20260507161516 | 13 | 229 | 9.7 | 19.3 | 0.00 | 0.00 | 0.00 | 55 | 1012.1 |
| 20260507160516 | 13 | 234 | 1.6 | 6.4 | 0.00 | 0.00 | 0.00 | 52 | 1012.1 |
| 20260507155516 | 13 | 235 | 8.0 | 17.7 | 0.00 | 0.00 | 0.00 | 55 | 1012.2 |
| 20260507154516 | 13 | 222 | 8.0 | 14.5 | 0.00 | 0.00 | 0.00 | 56 | 1012.5 |
| 20260507153516 | 13 | 204 | 4.8 | 14.5 | 0.00 | 0.00 | 0.00 | 55 | 1012.1 |
| 20260507152536 | 12 | 192 | 4.8 | 11.3 | 0.00 | 0.00 | 0.00 | 54 | 1012.3 |
| 20260507151516 | 12 | 210 | 8.0 | 16.1 | 0.00 | 0.00 | 0.00 | 55 | 1012.4 |
| 20260507150517 | 12 | 240 | 4.8 | 12.9 | 0.00 | 0.00 | 0.00 | 54 | 1012.4 |
| 20260507145517 | 12 | 215 | 8.0 | 16.1 | 0.00 | 0.00 | 0.00 | 56 | 1012.7 |
| 20260507144518 | 12 | 245 | 6.4 | 11.3 | 0.00 | 0.00 | 0.00 | 56 | 1012.7 |
| 20260507143517 | 11 | 247 | 4.8 | 11.3 | 0.00 | 0.00 | 0.00 | 56 | 1013.0 |
| 20260507142518 | 12 | 217 | 3.2 | 6.4 | 0.00 | 0.00 | 0.00 | 56 | 1013.0 |
| 20260507141517 | 11 | 94 | 3.2 | 8.0 | 0.00 | 0.00 | 0.00 | 58 | 1013.0 |
| 20260507140518 | 10 | 231 | 3.2 | 6.4 | 0.00 | 0.00 | 0.00 | 63 | 1013.9 |
| 20260507135518 | 11 | 219 | 6.4 | 9.7 | 0.00 | 0.00 | 0.00 | 62 | 1013.8 |
| 20260507134515 | 11 | 228 | 4.8 | 11.3 | 0.00 | 0.00 | 0.00 | 63 | 1013.5 |
| 20260507133518 | 11 | 235 | 8.0 | 11.3 | 0.00 | 0.00 | 0.00 | 62 | 1013.7 |
| 20260507132516 | 11 | 224 | 4.8 | 9.7 | 0.00 | 0.00 | 0.00 | 60 | 1013.7 |
| 20260507131515 | 10 | 243 | 4.8 | 11.3 | 0.00 | 0.00 | 0.00 | 60 | 1013.7 |
| 20260507130516 | 10 | 227 | 1.6 | 8.0 | 0.00 | 0.00 | 0.00 | 66 | 1013.5 |
| 20260507125536 | 10 | 201 | 3.2 | 8.0 | 0.00 | 0.00 | 0.00 | 70 | 1013.6 |
| 20260507124516 | 10 | 248 | 1.6 | 4.8 | 0.00 | 0.03 | 0.00 | 71 | 1013.7 |
| 20260507123516 | 10 | 123 | 0.0 | 1.6 | 0.00 | 0.05 | 0.00 | 71 | 1013.8 |
| 20260507122516 | 9 | 263 | 1.6 | 6.4 | 0.00 | 0.08 | 0.00 | 75 | 1013.8 |
| 20260507121517 | 8 | 219 | 0.0 | 1.6 | 0.00 | 0.10 | 0.00 | 83 | 1013.9 |
| 20260507120516 | 7 | 251 | 0.0 | 4.8 | 0.00 | 0.13 | 0.00 | 88 | 1013.9 |
| 20260507115517 | 7 | 0.0 | 0.0 | 0.00 | 0.13 | 0.00 | 92 | 1013.9 | |
| 20260507114517 | 7 | 234 | 0.0 | 3.2 | 0.00 | 0.13 | 0.00 | 95 | 1013.9 |
| 20260507113517 | 6 | 0.0 | 0.0 | 0.00 | 0.13 | 0.00 | 95 | 1013.9 | |
| 20260507112522 | 6 | 0.0 | 0.0 | 0.00 | 0.13 | 0.00 | 96 | 1014.0 | |
| 20260507111522 | 5 | 0.0 | 0.0 | 0.00 | 0.13 | 0.00 | 96 | 1013.9 | |
| 20260507110522 | 5 | 0.0 | 0.0 | 0.00 | 0.13 | 0.00 | 96 | 1013.9 | |
| 20260507105522 | 5 | 0.0 | 0.0 | 0.00 | 0.13 | 0.00 | 96 | 1013.8 | |
| 20260507104523 | 6 | 0.0 | 0.0 | 0.00 | 0.13 | 0.00 | 95 | 1013.8 | |
| 20260507103523 | 6 | 0.0 | 0.0 | 0.00 | 0.15 | 0.00 | 95 | 1013.7 | |
| 20260507102523 | 6 | 0.0 | 0.0 | 0.00 | 0.18 | 0.00 | 95 | 1013.5 | |
| 20260507101523 | 6 | 0.0 | 0.0 | 0.00 | 0.28 | 0.00 | 95 | 1013.5 | |
| 20260507100523 | 6 | 291 | 0.0 | 0.0 | 0.00 | 0.38 | 0.00 | 95 | 1013.3 |
| 20260507095523 | 6 | 0.0 | 0.0 | 0.00 | 0.43 | 0.00 | 95 | 1013.3 | |
| 20260507094524 | 6 | 0.0 | 0.0 | 0.00 | 0.51 | 0.00 | 95 | 1013.3 | |
| 20260507093524 | 6 | 0.0 | 0.0 | 0.00 | 0.61 | 0.00 | 94 | 1013.3 | |
| 20260507092524 | 6 | 0.0 | 0.0 | 0.00 | 0.66 | 0.00 | 93 | 1013.3 | |
| 20260507091524 | 6 | 0.0 | 0.0 | 0.00 | 0.69 | 0.00 | 93 | 1013.5 | |
| 20260507090524 | 6 | 0.0 | 0.0 | 0.00 | 0.69 | 0.00 | 93 | 1013.3 | |
| 20260507085525 | 7 | 0.0 | 0.0 | 0.00 | 0.74 | 0.00 | 92 | 1013.3 | |
| 20260507084524 | 7 | 0.0 | 0.0 | 0.00 | 0.76 | 0.00 | 92 | 1013.3 | |
| 20260507083525 | 7 | 0.0 | 0.0 | 0.00 | 0.81 | 0.00 | 92 | 1013.3 | |
| 20260507082545 | 7 | 43 | 0.0 | 0.0 | 0.00 | 0.84 | 0.00 | 93 | 1013.2 |
| 20260507081545 | 7 | 0.0 | 0.0 | 0.00 | 0.84 | 0.00 | 95 | 1013.3 | |
| 20260507080525 | 7 | 0.0 | 0.0 | 0.00 | 0.84 | 0.00 | 96 | 1013.2 | |
| 20260507075526 | 7 | 354 | 0.0 | 3.2 | 0.00 | 0.84 | 0.00 | 96 | 1013.2 |
| 20260507074526 | 7 | 60 | 0.0 | 1.6 | 0.00 | 0.84 | 0.00 | 96 | 1013.0 |
| 20260507073526 | 7 | 0.0 | 0.0 | 0.00 | 0.84 | 0.00 | 96 | 1013.1 | |
| 20260507072526 | 7 | 237 | 0.0 | 3.2 | 0.00 | 0.84 | 0.00 | 96 | 1013.1 |
| 20260507071546 | 7 | 0.0 | 0.0 | 0.00 | 0.84 | 0.00 | 95 | 1013.1 | |
| 20260507070526 | 8 | 64 | 0.0 | 1.6 | 0.00 | 0.84 | 0.00 | 95 | 1013.0 |
| 20260507065526 | 8 | 0.0 | 0.0 | 0.00 | 0.84 | 0.00 | 95 | 1013.1 | |
| 20260507064527 | 8 | 0.0 | 0.0 | 0.00 | 0.84 | 0.00 | 95 | 1013.0 | |
| 20260507063527 | 8 | 0.0 | 0.0 | 0.00 | 0.84 | 0.00 | 95 | 1013.0 | |
| 20260507062527 | 8 | 0.0 | 0.0 | 0.00 | 0.84 | 0.00 | 95 | 1013.0 | |
| 20260507061527 | 8 | 0.0 | 0.0 | 0.00 | 0.84 | 0.00 | 95 | 1013.0 | |
| 20260507060527 | 8 | 0.0 | 0.0 | 0.00 | 0.84 | 0.00 | 94 | 1013.2 | |
| 20260507055527 | 8 | 0.0 | 0.0 | 0.00 | 0.84 | 0.00 | 94 | 1013.3 | |
| 20260507054548 | 8 | 0.0 | 0.0 | 0.00 | 0.84 | 0.00 | 94 | 1013.4 | |
| 20260507053528 | 8 | 46 | 0.0 | 3.2 | 0.00 | 0.84 | 0.00 | 95 | 1013.5 |
| 20260507052528 | 8 | 41 | 1.6 | 3.2 | 0.00 | 0.84 | 0.00 | 96 | 1013.6 |
| 20260507051528 | 9 | 46 | 0.0 | 1.6 | 0.00 | 0.84 | 0.00 | 97 | 1013.6 |
| 20260507050518 | 9 | 0.0 | 0.0 | 0.00 | 0.84 | 0.00 | 97 | 1013.5 | |
| 20260507045636 | 9 | 292 | 0.0 | 1.6 | 0.00 | 0.84 | 0.00 | 97 | 1013.5 |
| 20260507044536 | 9 | 239 | 1.6 | 3.2 | 0.00 | 0.84 | 0.00 | 97 | 1013.5 |
| 20260507043515 | 9 | 0.0 | 0.0 | 0.00 | 0.84 | 0.00 | 97 | 1013.4 | |
| 20260507042516 | 9 | 0.0 | 0.0 | 0.00 | 0.84 | 0.00 | 97 | 1013.4 | |
| 20260507041516 | 9 | 0.0 | 0.0 | 0.00 | 0.84 | 0.00 | 97 | 1013.4 | |
| 20260507040556 | 9 | 0.0 | 0.0 | 0.00 | 0.84 | 0.00 | 96 | 1013.4 | |
| 20260507035516 | 9 | 0.0 | 0.0 | 0.00 | 0.84 | 0.84 | 96 | 1013.3 | |
| 20260507034516 | 9 | 0.0 | 0.0 | 0.00 | 0.84 | 0.84 | 96 | 1013.4 | |
| 20260507033516 | 9 | 52 | 0.0 | 1.6 | 0.00 | 0.84 | 0.84 | 96 | 1013.3 |
| 20260507032517 | 9 | 0.0 | 0.0 | 0.00 | 0.84 | 0.84 | 96 | 1013.7 | |
| 20260507031517 | 9 | 0.0 | 0.0 | 0.00 | 0.84 | 0.84 | 96 | 1013.8 | |
| 20260507030537 | 9 | 237 | 0.0 | 3.2 | 0.00 | 0.84 | 0.84 | 95 | 1013.6 |
| 20260507025517 | 9 | 0.0 | 0.0 | 0.00 | 0.84 | 0.84 | 95 | 1013.3 | |
| 20260507024517 | 9 | 0.0 | 0.0 | 0.00 | 0.84 | 0.84 | 95 | 1013.3 | |
| 20260507023517 | 9 | 212 | 0.0 | 3.2 | 0.00 | 0.84 | 0.84 | 95 | 1013.3 |
| 20260507022517 | 9 | 0.0 | 0.0 | 0.00 | 0.84 | 0.84 | 95 | 1013.2 | |
| 20260507021518 | 9 | 0.0 | 0.0 | 0.00 | 0.84 | 0.84 | 94 | 1013.1 | |
| 20260507020518 | 9 | 0.0 | 0.0 | 0.00 | 0.84 | 0.84 | 94 | 1013.1 | |
| 20260507015518 | 9 | 0.0 | 0.0 | 0.00 | 0.84 | 0.84 | 94 | 1013.0 | |
| 20260507014515 | 9 | 0.0 | 0.0 | 0.00 | 0.84 | 0.84 | 94 | 1012.9 | |
| 20260507013515 | 9 | 0.0 | 0.0 | 0.00 | 0.84 | 0.84 | 94 | 1012.9 | |
| 20260507012515 | 9 | 229 | 0.0 | 3.2 | 0.00 | 0.84 | 0.84 | 94 | 1013.2 |
| 20260507011516 | 9 | 0.0 | 0.0 | 0.00 | 0.84 | 0.84 | 94 | 1012.7 | |
| 20260507010516 | 9 | 43 | 0.0 | 1.6 | 0.00 | 0.84 | 0.84 | 94 | 1012.4 |
| 20260507005516 | 9 | 0.0 | 0.0 | 0.00 | 0.84 | 0.84 | 94 | 1012.7 | |
| 20260507004516 | 10 | 0.0 | 0.0 | 0.00 | 0.84 | 0.84 | 93 | 1012.9 | |
| 20260507003516 | 10 | 58 | 0.0 | 3.2 | 0.00 | 0.84 | 0.84 | 93 | 1012.8 |
| 20260507002517 | 10 | 0.0 | 0.0 | 0.00 | 0.84 | 0.84 | 92 | 1012.7 | |
| 20260507001517 | 10 | 195 | 0.0 | 3.2 | 0.00 | 0.84 | 0.84 | 90 | 1012.8 |
| 20260507000517 | 10 | 251 | 1.6 | 8.0 | 0.00 | 0.84 | 0.84 | 89 | 1013.3 |
| 20260506235518 | 10 | 283 | 0.0 | 3.2 | 0.00 | 0.84 | 0.84 | 90 | 1012.9 |
| 20260506234557 | 10 | 16 | 0.0 | 0.0 | 0.00 | 0.84 | 0.84 | 90 | 1012.7 |
| 20260506233517 | 10 | 277 | 0.0 | 3.2 | 0.00 | 0.84 | 0.84 | 89 | 1012.6 |
| 20260506232518 | 10 | 224 | 0.0 | 3.2 | 0.00 | 0.84 | 0.84 | 90 | 1012.6 |